Regional Weather Roundup
Issued by NWS

Home | Current Version | Previous Version | Graphics & Text | Print | Product List | Glossary On
Versions: 1 2 3 4 5 6 7 8 9 10 11 12 13 14 15 16 17 18 19 20 21 22 23 24 25 26 27 28 29 30 31 32 33 34 35 36 37 38 39 40 41 42 43 44 45 46 47 48 49 50
000
ASUS43 KFSD 220402
RWRSD

WEATHER ROUNDUP FOR SOUTH DAKOTA
NATIONAL WEATHER SERVICE SIOUX FALLS SD
1000 PM CST FRI NOV 21 2014

NOTE: "FAIR" INDICATES FEW OR NO CLOUDS BELOW 12,000 FEET WITH NO
SIGNIFICANT WEATHER AND/OR OBSTRUCTIONS TO VISIBILITY.


SDZ001>005-009-010-012>017-220500-
NORTHWEST AND NORTH CENTRAL SOUTH DAKOTA

CITY           SKY/WX    TMP DP  RH WIND       PRES   REMARKS
BUFFALO          N/A     33  26  75 W8        29.69F WCI  26
FAITH            N/A     35  25  66 SW9       29.78F WCI  28
MOBRIDGE       CLEAR     32  27  81 SE6       29.74F WCI  26
$$

SDZ012>016-024>037-041>051-057-063-072>074-220500-
SOUTHWEST AND SOUTH CENTRAL SOUTH DAKOTA

CITY           SKY/WX    TMP DP  RH WIND       PRES   REMARKS
RAPID CTY ARPT CLEAR     33  22  63 CALM      29.81F
PIERRE         CLEAR     33  27  78 SW8       29.80F WCI  26
CUSTER         CLEAR     24  18  77 W3        29.82F
ELLSWORTH AFB  CLEAR     36  23  60 SW7       29.80F
PHILIP         CLEAR     34  25  69 W8        29.82F WCI  27
PINE RIDGE     CLEAR     22  19  89 CALM      29.85S
WINNER         FAIR      39  29  67 SW8       29.83F
$$

SDZ004>011-016>023-039-040-220500-
NORTHEAST SOUTH DAKOTA

CITY           SKY/WX    TMP DP  RH WIND       PRES   REMARKS
ABERDEEN       PTCLDY    28  24  85 S9        29.77F WCI  19
WATERTOWN      CLOUDY    34  29  82 S8        29.79F WCI  27
SISSETON         N/A     38  29  70 W23G30    29.70F
$$

SDZ017-020-022-023-036>040-048>070-220500-
SOUTHEAST SOUTH DAKOTA

CITY           SKY/WX    TMP DP  RH WIND       PRES   REMARKS
SIOUX FALLS    CLOUDY    35  28  75 S14       29.88S WCI  26
HURON          PTCLDY    33  30  88 S7        29.82S WCI  27
MITCHELL       MOCLDY    35  32  88 S8        29.84F WCI  29
YANKTON        MOCLDY    39  28  65 S8        29.90S
$$

ABBREVIATIONS USED IN REMARKS
   TC - TEMPERATURE IN CELSIUS
  WCI - WIND CHILL INDEX
   HX - HEAT INDEX
  VSB - VISIBILITY




USA.gov is the U.S. government's official web portal to all federal, state and local government web resources and services.